sat.trackr.live / text

‹ back to catalog

STARLINK-34508

NORAD 64601 · 2025-137H

PAYLOAD ACTIVE UNKNOWN

§ Identity

Operator
Country
US
Launch date
2025-06-25
Launch site
AFETR
Launch vehicle
Mass (kg)
RCS (m²)

Purposes: comms

External: N2YO · Heavens-Above · Gunter

§ Orbital elements

Epoch: 2026-05-24T23:00:24.698016Z

Period
94.11 min
Inclination
53.1598°
Eccentricity
0.0001087
Mean motion
15.30202486 rev/d
Perigee alt
474.5 km
Apogee alt
476.0 km
Semi-major
6,853.3 km
B*
1.1508e-3
RAAN
340.8599°
Arg perigee
85.2645°
Mean anomaly
274.8480°
Rev number
5,241

§ Raw data

STARLINK-345081 64601U 25137H   26144.95861919  .00033881  00000+0  11508-2 0  99992 64601  53.1598 340.8599 0001087  85.2645 274.8480 15.30202486 52410

JSON: /api/v1/satellites/64601 · /tle

For live sub-satellite position, see the globe view (requires WebGL).

§ Visibility from observer

Set your observer location to see the next 7 days of passes ≥ 10°. The values pass through the URL so the page stays shareable.

No JS? Fill the form by hand. The geolocation button needs JavaScript.